Voltar ao catálogo

DELTA 1 DEB

AtivoSSO
NORAD 40765·DEBRIS·🇺🇸 United States

Lançado Jul 29, 1976 de Vandenberg Space Force Base

Loading…

Próximas Passagens (próximas 24 horas)

TLE

EnvelhecendoSource: Space-Track

Época: Sep 8, 2026, 10:51 UTC

1 40765U 76077GJ  26251.45271183  .00000015  00000-0  42642-3 0  9993
2 40765 102.1704 253.7016 0026454 266.6859  93.1181 12.45460751581659

Acompanhe DELTA 1 DEB em tempo real com AllMySat

Download on the App Store